Tracking 30995 objects as of 5-Jul-2025
HD Live streaming from Space Station
objects crossing your sky now

DELTA 1 DEB

Track DELTA 1 DEB now!
10-day predictions


NORAD ID: 7133
Int'l Code: 1973-086CX
Perigee: 1,480.4 km
Apogee: 1,534.8 km
Inclination: 101.7 °
Period: 116.0 minutes
Semi major axis: 7878 km
RCS: 0.0439 m2 (small)
Launch date: November 6, 1973
Source: United States (US)
Launch site: AIR FORCE WESTERN TEST RANGE (AFWTR)

Note: This is SATELLITE DEBRIS
Your satellite tracking list
POPACS 3
Track 1 satellite(s)




NASA's NSSDC Master Catalog

Two Line Element Set (TLE):
1 07133U 73086CX  25185.05713645 -.00000014  00000-0  21579-3 0  9993
2 07133 101.7073 227.3046 0034573 257.9327 131.1663 12.41449922337143
Source of the keplerian elements: AFSPC